Flag for Cambodia

Past Weather in Siem Reap, Cambodia — Yesterday and Last 2 Weeks

Now
75 °F

Scattered clouds.


Feels Like: 73 °F
Forecast: 84 / 74 °F
Wind: 3 mph from Northwest

Location: Siemreap
Current Time: Oct 21, 2020 at 6:57:44 am
Latest Report: Oct 21, 2020 at 6:00 am
Visibility: 6 mi
Pressure29.77 "Hg
Humidity: 100%
Dew Point: 75 °F
Location of Siem ReapLocation

Past Weather in Siem Reap — Graph

°F

Siem Reap Temperature Yesterday

Maximum temperature yesterday: 86 °F (at 1:30 pm)
Minimum temperature yesterday: 75 °F (at 2:30 am)
Average temperature yesterday: 80 °F

High & Low Weather Summary for the Past Weeks

 TemperatureHumidityPressure
High90 °F (Oct 6, 12:30 pm)100% (Oct 6, 5:00 am)29.83 "Hg (Oct 6, 5:00 am)
Low73 °F (Oct 13, 5:00 am)22% (Oct 12, 9:00 am)29.56 "Hg (Oct 16, 3:30 pm)
Average79 °F93%29.68 "Hg
* Reported Oct 6 5:00 am — Oct 21 5:30 am, Siem Reap. Weather by CustomWeather, © 2020

Note: Actual official high and low records may vary slightly from our data, if they occured in-between our weather recording intervals... More about our weather records

Siem Reap Weather History for the Previous 24 Hours

Scroll right to see more
 ConditionsComfort  
Time TempWeatherWind HumidityBarometerVisibility
5:30 am
Wed, Oct 21
75 °FPassing clouds.3 mph100%29.77 "Hg6 mi
5:00 am75 °FPassing clouds.9 mph100%29.77 "Hg6 mi
4:30 am75 °FPassing clouds.9 mph94%29.77 "Hg6 mi
4:00 am75 °FPassing clouds.9 mph100%29.77 "Hg6 mi
3:30 am75 °FPassing clouds.9 mph100%29.65 "Hg6 mi
3:00 am75 °FPassing clouds.9 mph100%29.77 "Hg6 mi
2:30 am75 °FPassing clouds.9 mph94%29.80 "Hg6 mi
2:00 am75 °FPassing clouds.9 mph94%29.77 "Hg6 mi
1:00 am77 °FPassing clouds.9 mph89%29.80 "Hg6 mi
12:30 am77 °FPassing clouds.9 mph89%29.80 "Hg6 mi
12:00 am77 °FPassing clouds.9 mph89%29.80 "Hg6 mi
11:30 pm
Tue, Oct 20
77 °FPassing clouds.9 mph89%29.83 "Hg6 mi
11:00 pm77 °FPassing clouds.9 mph89%29.83 "Hg6 mi
10:30 pm79 °FPassing clouds.9 mph84%29.83 "Hg6 mi
9:00 pm79 °FPassing clouds.9 mph84%29.80 "Hg6 mi
8:30 pm79 °FPassing clouds.9 mph84%29.80 "Hg6 mi
8:00 pm79 °FPassing clouds.9 mph84%29.80 "Hg6 mi
7:30 pm79 °FPassing clouds.9 mph84%29.77 "Hg6 mi
7:00 pm79 °FPassing clouds.9 mph84%29.77 "Hg6 mi
6:30 pm81 °FPassing clouds.9 mph79%29.74 "Hg6 mi
6:00 pm81 °FPassing clouds.7 mph79%29.74 "Hg6 mi
5:30 pm82 °FScattered clouds.10 mph70%29.74 "HgN/A
5:00 pm82 °FScattered clouds.9 mph74%29.71 "HgN/A
4:30 pm86 °FScattered clouds.9 mph66%29.71 "HgN/A
4:00 pm86 °FScattered clouds.9 mph66%29.71 "HgN/A
3:30 pm86 °FScattered clouds.9 mph62%29.71 "HgN/A
3:00 pm86 °FScattered clouds.9 mph66%29.71 "HgN/A
2:30 pm84 °FScattered clouds.8 mph70%29.71 "HgN/A
2:00 pm86 °FScattered clouds.8 mph66%29.74 "HgN/A
1:30 pm86 °FScattered clouds.6 mph70%29.74 "HgN/A
1:00 pm84 °FScattered clouds.7 mph70%29.74 "HgN/A
12:30 pm84 °FScattered clouds.6 mph70%29.77 "HgN/A
12:00 pm84 °FScattered clouds.7 mph70%29.77 "HgN/A
11:30 am84 °FScattered clouds.6 mph70%29.77 "HgN/A
11:00 am82 °FScattered clouds.7 mph79%29.80 "HgN/A
10:30 am81 °FScattered clouds.5 mph84%29.80 "HgN/A
10:00 am81 °FScattered clouds.5 mph84%29.83 "HgN/A
9:30 am81 °FScattered clouds.7 mph84%29.80 "HgN/A
9:00 am79 °FScattered clouds.6 mph89%29.83 "HgN/A
8:30 am79 °FScattered clouds.6 mph89%29.83 "HgN/A
8:00 am77 °FScattered clouds.6 mph94%29.80 "HgN/A
7:30 am77 °FScattered clouds.5 mph100%29.80 "HgN/A
7:00 am75 °FScattered clouds.5 mph100%29.80 "Hg6 mi
6:30 am75 °FScattered clouds.2 mph100%29.77 "Hg6 mi
6:00 am75 °FScattered clouds.5 mph100%29.77 "Hg6 mi
Weather by CustomWeather, © 2020

See weather overview